H1 CPF 2 NER 2024 3 16 9 076 01 glonass134 H2 1407501 9134 40315 2024 3 16 0 0 0 2024 3 19 23 45 0 900 1 1 0 0 0 1 H9 10 0 60385 0.00000 0 -16155744.778 -19172272.395 -4449360.049 10 0 60385 900.00000 0 -15669220.213 -18605941.314 -7527586.386 10 0 60385 1800.00000 0 -14856218.780 -17841230.478 -10458801.698 10 0 60385 2700.00000 0 -13706730.771 -16933416.670 -13185786.003 10 0 60385 3600.00000 0 -12223346.202 -15940479.006 -15655348.409 10 0 60385 4500.00000 0 -10421388.890 -14920540.479 -17819377.742 10 0 60385 5400.00000 0 -8328517.621 -13929324.810 -19635787.653 10 0 60385 6300.00000 0 -5983811.313 -13017737.748 -21069337.155 10 0 60385 7200.00000 0 -3436377.267 -12229676.063 -22092310.632 10 0 60385 8100.00000 0 -743541.759 -11600156.898 -22685044.721 10 0 60385 9000.00000 0 2031300.343 -11153845.848 -22836293.052 10 0 60385 9900.00000 0 4821086.262 -10904044.472 -22543423.267 10 0 60385 10800.00000 0 7557635.749 -10852178.003 -21812444.324 10 0 60385 11700.00000 0 10174245.104 -10987802.544 -20657865.433 10 0 60385 12600.00000 0 12608217.451 -11289129.038 -19102391.148 10 0 60385 13500.00000 0 14803225.341 -11724039.616 -17176460.151 10 0 60385 14400.00000 0 16711409.272 -12251551.561 -14917637.991 10 0 60385 15300.00000 0 18295127.154 -12823665.691 -12369876.556 10 0 60385 16200.00000 0 19528284.587 -13387520.386 -9582655.249 10 0 60385 17100.00000 0 20397193.310 -13887760.209 -6610020.749 10 0 60385 18000.00000 0 20900924.788 -14269019.564 -3509543.883 10 0 60385 18900.00000 0 21051146.611 -14478417.483 -341213.369 10 0 60385 19800.00000 0 20871450.635 -14467959.522 2833712.898 10 0 60385 20700.00000 0 20396202.364 -14196746.792 5953877.729 10 0 60385 21600.00000 0 19668960.611 -13632900.286 8958994.275 10 0 60385 22500.00000 0 18740533.709 -12755120.420 11790994.143 10 0 60385 23400.00000 0 17666753.281 -11553816.677 14395133.196 10 0 60385 24300.00000 0 16506057.843 -10031759.745 16721035.138 10 0 60385 25200.00000 0 15316986.151 -8204227.897 18723654.083 10 0 60385 26100.00000 0 14155683.840 -6098639.932 20364138.674 10 0 60385 27000.00000 0 13073526.374 -3753687.711 21610581.965 10 0 60385 27900.00000 0 12114956.688 -1218001.693 22438643.114 10 0 60385 28800.00000 0 11315627.367 1451598.036 22832028.888 10 0 60385 29700.00000 0 10700925.019 4192195.707 22782825.235 10 0 60385 30600.00000 0 10284939.101 6937134.774 22291671.512 10 0 60385 31500.00000 0 10069919.465 9618538.560 21367772.503 10 0 60385 32400.00000 0 10046246.883 12169893.900 20028746.132 10 0 60385 33300.00000 0 10192919.599 14528591.679 18300307.665 10 0 60385 34200.00000 0 10478537.348 16638318.950 16215794.291 10 0 60385 35100.00000 0 10862743.110 18451202.653 13815537.219 10 0 60385 36000.00000 0 11298063.102 19929614.507 11146091.658 10 0 60385 36900.00000 0 11732067.979 21047560.171 8259338.382 10 0 60385 37800.00000 0 12109763.782 21791592.884 5211473.730 10 0 60385 38700.00000 0 12376110.540 22161211.747 2061907.715 10 0 60385 39600.00000 0 12478560.157 22168726.719 -1127907.418 10 0 60385 40500.00000 0 12369503.809 21838595.475 -4295693.948 10 0 60385 41400.00000 0 12008522.432 21206260.188 -7379585.082 10 0 60385 42300.00000 0 11364342.183 20316534.212 -10319354.580 10 0 60385 43200.00000 0 10416409.464 19221608.315 -13057613.322 10 0 60385 44100.00000 0 9156016.646 17978762.670 -15540947.277 10 0 60385 45000.00000 0 7586929.306 16647883.524 -17720972.829 10 0 60385 45900.00000 0 5725487.570 15288891.577 -19555287.603 10 0 60385 46800.00000 0 3600176.969 13959192.471 -21008297.606 10 0 60385 47700.00000 0 1250687.183 12711258.229 -22051904.499 10 0 60385 48600.00000 0 -1273501.150 11590442.076 -22666040.308 10 0 60385 49500.00000 0 -3914941.484 10633118.403 -22839040.276 10 0 60385 50400.00000 0 -6610381.034 9865225.000 -22567848.182 10 0 60385 51300.00000 0 -9293164.269 9301267.065 -21858051.930 10 0 60385 52200.00000 0 -11895779.788 8943822.459 -20723750.605 10 0 60385 53100.00000 0 -14352444.706 8783566.335 -19187257.391 10 0 60385 54000.00000 0 -16601619.843 8799811.322 -17278645.747 10 0 60385 54900.00000 0 -18588352.463 8961537.994 -15035148.986 10 0 60385 55800.00000 0 -20266350.946 9228870.067 -12500425.904 10 0 60385 56700.00000 0 -21599707.315 9554930.608 -9723707.357 10 0 60385 57600.00000 0 -22564198.379 9888000.060 -6758840.538 10 0 60385 58500.00000 0 -23148113.774 10173884.849 -3663249.439 10 0 60385 59400.00000 0 -23352578.735 10358396.956 -496831.182 10 0 60385 60300.00000 0 -23191360.181 10389840.674 2679191.132 10 0 60385 61200.00000 0 -22690165.780 10221402.755 5803437.790 10 0 60385 62100.00000 0 -21885466.276 9813346.344 8815542.624 10 0 60385 63000.00000 0 -20822890.664 9134917.316 11657302.676 10 0 60385 63900.00000 0 -19555261.068 8165883.456 14273786.535 10 0 60385 64800.00000 0 -18140348.663 6897641.925 16614381.398 10 0 60385 65700.00000 0 -16638443.224 5333848.005 18633759.993 10 0 60385 66600.00000 0 -15109836.367 3490537.523 20292749.866 10 0 60385 67500.00000 0 -13612322.117 1395735.855 21559089.167 10 0 60385 68400.00000 0 -12198817.742 -911432.753 22408054.877 10 0 60385 69300.00000 0 -10915203.172 -3382101.449 22822951.398 10 0 60385 70200.00000 0 -9798468.612 -5959429.389 22795449.637 10 0 60385 71100.00000 0 -8875247.667 -8580712.391 22325769.045 10 0 60385 72000.00000 0 -8160797.831 -11179750.742 21422697.643 10 0 60385 72900.00000 0 -7658471.997 -13689378.131 20103447.774 10 0 60385 73800.00000 0 -7359704.511 -16044048.193 18393348.227 10 0 60385 74700.00000 0 -7244513.937 -18182371.793 16325376.508 10 0 60385 75600.00000 0 -7282502.895 -20049499.340 13939538.182 10 0 60385 76500.00000 0 -7434314.141 -21599247.888 11282103.547 10 0 60385 77400.00000 0 -7653482.215 -22795882.722 8404715.154 10 0 60385 78300.00000 0 -7888602.499 -23615477.068 5363382.859 10 0 60385 79200.00000 0 -8085725.289 -24046791.060 2217385.975 10 0 60385 80100.00000 0 -8190872.045 -24091631.418 -971895.294 10 0 60385 81000.00000 0 -8152565.123 -23764675.527 -4142194.972 10 0 60385 81900.00000 0 -7924261.162 -23092766.870 -7231597.354 10 0 60385 82800.00000 0 -7466582.178 -22113711.757 -10179767.613 10 0 60385 83700.00000 0 -6749247.069 -20874629.109 -12929150.603 10 0 60385 84600.00000 0 -5752619.248 -19429924.520 -15426112.304 10 0 60385 85500.00000 0 -4468802.985 -17838976.084 -17621999.757 10 0 60386 0.00000 0 -2902240.949 -16163631.837 -19474097.357 10 0 60386 900.00000 0 -1069786.187 -14465625.326 -20946461.106 10 0 60386 1800.00000 0 999752.370 -12804021.923 -22010612.091 10 0 60386 2700.00000 0 3266574.109 -11232801.173 -22646079.620 10 0 60386 3600.00000 0 5681317.388 -9798679.078 -22840781.998 10 0 60386 4500.00000 0 8186896.618 -8539260.112 -22591240.126 10 0 60386 5400.00000 0 10720668.040 -7481595.050 -21902621.391 10 0 60386 6300.00000 0 13216833.262 -6641202.849 -20788614.868 10 0 60386 7200.00000 0 15608980.175 -6021594.820 -19271142.066 10 0 60386 8100.00000 0 17832655.778 -5614318.051 -17379910.501 10 0 60386 9000.00000 0 19827864.688 -5399513.252 -15151820.085 10 0 60386 9900.00000 0 21541390.673 -5346960.808 -12630234.905 10 0 60386 10800.00000 0 22928846.397 -5417568.810 -9864135.168 10 0 60386 11700.00000 0 23956368.098 -5565238.741 -6907166.024 10 0 60386 12600.00000 0 24601886.807 -5739029.286 -3816601.654 10 0 60386 13500.00000 0 24855925.298 -5885526.754 -652244.282 10 0 60386 14400.00000 0 24721889.502 -5951322.505 2524721.307 10 0 60386 15300.00000 0 24215843.761 -5885493.652 5652896.494 10 0 60386 16200.00000 0 23365780.417 -5641983.488 8671839.368 10 0 60386 17100.00000 0 22210414.682 -5181782.357 11523215.835 10 0 60386 18000.00000 0 20797554.977 -4474818.014 14151910.391 10 0 60386 18900.00000 0 19182116.092 -3501476.384 16507076.587 10 0 60386 19800.00000 0 17423856.847 -2253688.708 18543108.284 10 0 60386 20700.00000 0 15584935.156 -735538.635 20220514.067 10 0 60386 21600.00000 0 13727380.719 1036637.738 21506678.926 10 0 60386 22500.00000 0 11910589.052 3034665.316 22376499.010 10 0 60386 23400.00000 0 10188939.874 5219442.498 22812877.283 10 0 60386 24300.00000 0 8609638.056 7542317.835 22807070.102 10 0 60386 25200.00000 0 7210866.587 9946876.828 22358877.070 10 0 60386 26100.00000 0 6020328.641 12371067.571 21476669.053 10 0 60386 27000.00000 0 5054240.137 14749579.497 20177251.972 10 0 60386 27900.00000 0 4316815.898 17016378.266 18485566.897 10 0 60386 28800.00000 0 3800272.169 19107292.396 16434230.015 10 0 60386 29700.00000 0 3485346.754 20962544.154 14062919.277 10 0 60386 30600.00000 0 3342316.031 22529118.511 11417617.798 10 0 60386 31500.00000 0 3332466.887 23762869.830 8549727.374 10 0 60386 32400.00000 0 3409961.659 24630276.263 5515068.632 10 0 60386 33300.00000 0 3524016.847 25109766.212 2372787.272 10 0 60386 34200.00000 0 3621302.218 25192559.117 -815811.555 10 0 60386 35100.00000 0 3648456.802 24882983.507 -3988476.643 10 0 60386 36000.00000 0 3554612.744 24198257.833 -7083246.352 10 0 60386 36900.00000 0 3293817.233 23167742.891 -10039680.083 10 0 60386 37800.00000 0 2827247.048 21831697.741 -12800059.269 10 0 60386 38700.00000 0 2125119.225 20239592.632 -15310532.244 10 0 60386 39600.00000 0 1168214.733 18448051.665 -17522178.761 10 0 60386 40500.00000 0 -51050.929 16518513.748 -19391972.051 10 0 60386 41400.00000 0 -1528056.408 14514712.244 -20883618.933 10 0 60386 42300.00000 0 -3245926.885 12500080.953 -21968261.497 10 0 60386 43200.00000 0 -5176011.891 10535196.517 -22625027.271 10 0 60386 44100.00000 0 -7278867.849 8675364.995 -22841418.256 10 0 60386 45000.00000 0 -9505703.185 6968453.376 -22613532.775 10 0 60386 45900.00000 0 -11800224.547 5453055.604 -21946117.625 10 0 60386 46800.00000 0 -14100806.166 4157067.843 -20852451.387 10 0 60386 47700.00000 0 -16342891.270 3096730.003 -19354063.011 10 0 60386 48600.00000 0 -18461525.290 2276170.521 -17480292.789 10 0 60386 49500.00000 0 -20393915.730 1687470.259 -15267705.615 10 0 60386 50400.00000 0 -22081912.873 1311239.650 -12759368.985 10 0 60386 51300.00000 0 -23474309.342 1117682.078 -10004010.380 10 0 60386 52200.00000 0 -24528864.368 1068096.474 -7055070.707 10 0 60386 53100.00000 0 -25213970.245 1116754.348 -3969672.054 10 0 60386 54000.00000 0 -25509893.447 1213071.285 -807519.406 10 0 60386 54900.00000 0 -25409540.404 1303981.213 2370243.156 10 0 60386 55800.00000 0 -24918717.513 1336413.735 5502200.535 10 0 60386 56700.00000 0 -24055875.581 1259770.878 8527837.557 10 0 60386 57600.00000 0 -22851349.918 1028299.897 11388691.484 10 0 60386 58500.00000 0 -21346127.716 603263.150 14029465.196 10 0 60386 59400.00000 0 -19590193.486 -45185.539 16399081.012 10 0 60386 60300.00000 0 -17640520.345 -936496.644 18451656.176 10 0 60386 61200.00000 0 -15558789.288 -2078656.349 20147382.359 10 0 60386 62100.00000 0 -13408929.569 -3467599.463 21453293.145 10 0 60386 63000.00000 0 -11254580.684 -5087130.225 22343905.276 10 0 60386 63900.00000 0 -9156579.795 -6909356.747 22801721.339 10 0 60386 64800.00000 0 -7170577.694 -8895623.877 22817583.839 10 0 60386 65700.00000 0 -5344881.486 -10997908.786 22390872.870 10 0 60386 66600.00000 0 -3718613.400 -13160624.291 21529542.136 10 0 60386 67500.00000 0 -2320262.512 -15322757.662 20249990.823 10 0 60386 68400.00000 0 -1166690.443 -17420258.167 18576771.651 10 0 60386 69300.00000 0 -262633.535 -19388575.387 16542138.568 10 0 60386 70200.00000 0 399276.468 -21165243.094 14185440.710 10 0 60386 71100.00000 0 837972.996 -22692400.543 11552372.539 10 0 60386 72000.00000 0 1082918.274 -23919144.657 8694093.369 10 0 60386 72900.00000 0 1172613.229 -24803612.796 5666232.663 10 0 60386 73800.00000 0 1152716.790 -25314706.586 2527800.379 10 0 60386 74700.00000 0 1073854.984 -25433382.061 -659975.674 10 0 60386 75600.00000 0 989214.157 -25153449.693 -3834861.501 10 0 60386 76500.00000 0 952022.505 -24481848.926 -6934852.082 10 0 60386 77400.00000 0 1013029.277 -23438384.609 -9899403.726 10 0 60386 78300.00000 0 1218091.319 -22054936.091 -12670637.198 10 0 60386 79200.00000 0 1605971.996 -20374172.824 -15194485.972 10 0 60386 80100.00000 0 2206448.135 -18447831.637 -17421765.255 10 0 60386 81000.00000 0 3038806.973 -16334629.824 -19309139.575 10 0 60386 81900.00000 0 4110797.930 -14097903.537 -20819969.290 10 0 60386 82800.00000 0 5418083.977 -11803072.402 -21925019.402 10 0 60386 83700.00000 0 6944215.680 -9515038.043 -22603017.375 10 0 60386 84600.00000 0 8661128.416 -7295626.253 -22841050.228 10 0 60386 85500.00000 0 10530140.922 -5201179.857 -22634794.624 10 0 60387 0.00000 0 12503412.039 -3280402.264 -21988577.367 10 0 60387 900.00000 0 14525794.666 -1572539.122 -20915266.574 10 0 60387 1800.00000 0 16537005.871 -105974.217 -19435998.445 10 0 60387 2700.00000 0 18474025.524 1102708.083 -17579745.451 10 0 60387 3600.00000 0 20273620.641 2049155.345 -15382736.491 10 0 60387 4500.00000 0 21874891.554 2741160.841 -12887741.066 10 0 60387 5400.00000 0 23221734.388 3198065.219 -10143232.123 10 0 60387 6300.00000 0 24265118.404 3449673.947 -7202444.086 10 0 60387 7200.00000 0 24965084.689 3534738.180 -4122344.340 10 0 60387 8100.00000 0 25292384.477 3499064.448 -962537.706 10 0 60387 9000.00000 0 25229690.333 3393333.442 2215875.586 10 0 60387 9900.00000 0 24772331.033 3270719.873 5351467.220 10 0 60387 10800.00000 0 23928520.526 3184413.173 8383652.021 10 0 60387 11700.00000 0 22719071.941 3185142.636 11253841.783 10 0 60387 12600.00000 0 21176608.580 3318810.213 13906560.780 10 0 60387 13500.00000 0 19344304.146 3624329.649 16290502.885 10 0 60387 14400.00000 0 17274203.537 4131762.218 18359511.260 10 0 60387 15300.00000 0 15025192.478 4860827.233 20073462.912 10 0 60387 16200.00000 0 12660698.513 5819850.338 21399041.975 10 0 60387 17100.00000 0 10246216.809 7005194.914 22310387.404 10 0 60387 18000.00000 0 7846761.557 8401202.290 22789602.679 10 0 60387 18900.00000 0 5524347.047 9980645.806 22827117.323 10 0 60387 19800.00000 0 3335601.622 11705682.682 22421892.352 10 0 60387 20700.00000 0 1329612.846 13529267.036 21581464.278 10 0 60387 21600.00000 0 -453906.798 15396968.091 20321825.029 10 0 60387 22500.00000 0 -1986057.068 17249120.258 18667137.987 10 0 60387 23400.00000 0 -3249729.295 19023217.255 16649293.417 10 0 60387 24300.00000 0 -4240085.961 20656451.347 14307309.793 10 0 60387 25200.00000 0 -4964519.368 22088291.699 11686590.732 10 0 60387 26100.00000 0 -5442090.106 23262993.101 8838050.592 10 0 60387 27000.00000 0 -5702468.388 24131928.347 5817124.950 10 0 60387 27900.00000 0 -5784422.739 24655644.198 2682685.127 10 0 60387 28800.00000 0 -5733920.469 24805552.027 -504121.438 10 0 60387 29700.00000 0 -5601921.515 24565179.502 -3681081.040 10 0 60387 30600.00000 0 -5441960.995 23930928.411 -6786148.360 10 0 60387 31500.00000 0 -5307625.294 22912305.001 -9758679.595 10 0 60387 32400.00000 0 -5250031.390 21531612.192 -12540637.655 10 0 60387 33300.00000 0 -5315418.989 19823116.407 -15077743.739 10 0 60387 34200.00000 0 -5542959.991 17831724.660 -17320550.818 10 0 60387 35100.00000 0 -5962880.134 15611228.679 -19225416.726 10 0 60387 36000.00000 0 -6594973.685 13222191.337 -20755357.066 10 0 60387 36900.00000 0 -7447574.735 10729565.726 -21880761.117 10 0 60387 37800.00000 0 -8517028.537 8200148.065 -22579957.335 10 0 60387 38700.00000 0 -9787684.670 5699972.043 -22839618.446 10 0 60387 39600.00000 0 -11232411.309 3291753.897 -22654999.761 10 0 60387 40500.00000 0 -12813607.756 1032494.511 -22030007.830 10 0 60387 41400.00000 0 -14484671.455 -1028662.680 -20977099.997 10 0 60387 42300.00000 0 -16191856.832 -2852230.551 -19517018.655 10 0 60387 43200.00000 0 -17876447.224 -4409761.601 -17678367.061 10 0 60387 44100.00000 0 -19477148.593 -5684761.095 -15497036.352 10 0 60387 45000.00000 0 -20932604.886 -6673095.260 -13015495.986 10 0 60387 45900.00000 0 -22183930.364 -7382880.845 -10281962.099 10 0 60387 46800.00000 0 -23177153.956 -7833863.765 -7349460.216 10 0 60387 47700.00000 0 -23865474.676 -8056315.516 -4274800.505 10 0 60387 48600.00000 0 -24211235.255 -8089495.673 -1117485.054 10 0 60387 49500.00000 0 -24187532.951 -7979746.379 2061432.356 10 0 60387 50400.00000 0 -23779401.517 -7778299.520 5200512.816 10 0 60387 51300.00000 0 -22984515.955 -7538888.748 8239103.780 10 0 60387 52200.00000 0 -21813391.180 -7315266.279 11118494.175 10 0 60387 53100.00000 0 -20289066.338 -7158727.995 13783032.200 10 0 60387 54000.00000 0 -18446287.344 -7115749.958 16181185.672 10 0 60387 54900.00000 0 -16330220.562 -7225834.746 18266525.863 10 0 60387 55800.00000 0 -13994749.470 -7519657.581 19998617.018 10 0 60387 56700.00000 0 -11500423.097 -8017589.950 21343795.389 10 0 60387 57600.00000 0 -8912139.140 -8728663.296 22275823.336 10 0 60387 58500.00000 0 -6296655.659 -9650017.485 22776406.028 10 0 60387 59400.00000 0 -3720032.446 -10766859.088 22835560.417 10 0 60387 60300.00000 0 -1245106.431 -12052933.750 22451828.488 10 0 60387 61200.00000 0 1070895.349 -13471495.701 21632329.283 10 0 60387 62100.00000 0 3178506.811 -14976736.785 20392646.905 10 0 60387 63000.00000 0 5037848.539 -16515617.956 18756554.546 10 0 60387 63900.00000 0 6620051.692 -18030028.818 16755577.685 10 0 60387 64800.00000 0 7908219.811 -19459186.297 14428402.770 10 0 60387 65700.00000 0 8897887.260 -20742172.579 11820140.939 10 0 60387 66600.00000 0 9596953.977 -21820505.500 8981459.701 10 0 60387 67500.00000 0 10025098.468 -22640632.284 5967598.620 10 0 60387 68400.00000 0 10212693.316 -23156239.798 2837288.039 10 0 60387 69300.00000 0 10199269.195 -23330281.672 -348407.471 10 0 60387 70200.00000 0 10031593.106 -23136634.216 -3527297.104 10 0 60387 71100.00000 0 9761443.766 -22561308.775 -6637297.913 10 0 60387 72000.00000 0 9443180.405 -21603167.211 -9617668.661 10 0 60387 72900.00000 0 9131210.562 -20274108.771 -12410217.070 10 0 60387 73800.00000 0 8877466.815 -18598719.591 -14960454.648 10 0 60387 74700.00000 0 8729001.914 -16613399.531 -17218674.590 10 0 60387 75600.00000 0 8725806.358 -14365003.659 -19140930.305 10 0 60387 76500.00000 0 8898942.368 -11909056.558 -20689894.642 10 0 60387 77400.00000 0 9269074.101 -9307615.792 -21835582.848 10 0 60387 78300.00000 0 9845456.339 -6626875.405 -22555925.670 10 0 60387 79200.00000 0 10625423.870 -3934610.836 -22837182.460 10 0 60387 80100.00000 0 11594402.008 -1297572.651 -22674187.688 10 0 60387 81000.00000 0 12726436.425 1221062.206 -22070427.861 10 0 60387 81900.00000 0 13985218.450 3564076.154 -21037949.214 10 0 60387 82800.00000 0 15325561.260 5682335.843 -19597099.824 10 0 60387 83700.00000 0 16695263.710 7536569.890 -17776112.874 10 0 60387 84600.00000 0 18037282.749 9098728.214 -15610540.575 10 0 60387 85500.00000 0 19292122.892 10352869.478 -13142550.860 10 0 60388 0.00000 0 20400342.571 11295542.848 -10420101.508 10 0 60388 900.00000 0 21305073.487 11935651.842 -7496006.544 10 0 60388 1800.00000 0 21954446.847 12293807.636 -4426916.759 10 0 60388 2700.00000 0 22303828.093 12401203.032 -1272228.883 10 0 60388 3600.00000 0 22317766.291 12298054.692 1907052.542 10 0 60388 4500.00000 0 21971578.444 12031680.641 5049480.884 10 0 60388 5400.00000 0 21252503.354 11654294.026 8094339.087 10 0 60388 6300.00000 0 20160377.369 11220605.524 10982796.004 10 0 60388 7200.00000 0 18707803.867 10785334.451 13659026.416 10 0 60388 8100.00000 0 16919808.926 10400732.079 16071274.579 10 0 60388 9000.00000 0 14832996.363 10114220.168 18172842.172 10 0 60388 9900.00000 0 12494235.684 9966242.885 19922982.773 10 0 60388 10800.00000 0 9958935.344 9988421.764 21287686.610 10 0 60388 11700.00000 0 7288970.592 10202091.050 22240341.051 10 0 60388 12600.00000 0 4550349.348 10617275.465 22762254.251 10 0 60388 13500.00000 0 1810710.464 11232154.530 22843031.541 10 0 60388 14400.00000 0 -863244.093 12033037.795 22480796.426 10 0 60388 15300.00000 0 -3408278.327 12994854.403 21682250.575 10 0 60388 16200.00000 0 -5767008.725 14082139.098 20462569.879 10 0 60388 17100.00000 0 -7890049.572 15250476.043 18845136.464 10 0 60388 18000.00000 0 -9737827.612 16448342.225 16861109.678 10 0 60388 18900.00000 0 -11281989.785 17619274.925 14548842.169 10 0 60388 19800.00000 0 -12506344.208 18704273.299 11953150.471 10 0 60388 20700.00000 0 -13407293.818 19644333.224 9124452.833 10 0 60388 21600.00000 0 -13993743.404 20383008.019 6117790.183 10 0 60388 22500.00000 0 -14286483.209 20868885.559 2991749.108 10 0 60388 23400.00000 0 -14317074.814 21057875.072 -192691.570 10 0 60388 24300.00000 0 -14126286.795 20915204.518 -3373366.894 10 0 60388 25200.00000 0 -13762147.375 20417041.452 -6488159.240 10 0 60388 26100.00000 0 -13277698.243 19551666.400 -9476232.867 10 0 60388 27000.00000 0 -12728546.917 18320147.159 -12279243.113 10 0 60388 27900.00000 0 -12170323.824 16736484.070 -14842494.430 10 0 60388 28800.00000 0 -11656154.342 14827219.503 -17116022.638 10 0 60388 29700.00000 0 -11234255.090 12630527.959 -19055578.828 10 0 60388 30600.00000 0 -10945757.943 10194825.678 -20623494.879 10 0 60388 31500.00000 0 -10822854.859 7576959.178 -21789413.439 10 0 60388 32400.00000 0 -10887342.251 4840049.831 -22530868.619 10 0 60388 33300.00000 0 -11149625.888 2051085.820 -22833707.076 10 0 60388 34200.00000 0 -11608227.255 -721637.118 -22692342.725 10 0 60388 35100.00000 0 -12249810.579 -3411119.076 -22109841.891 10 0 60388 36000.00000 0 -13049727.562 -5954195.381 -21097839.126 10 0 60388 36900.00000 0 -13973055.018 -8293907.324 -19676287.196 10 0 60388 37800.00000 0 -14976080.025 -10381607.316 -17873047.811 10 0 60388 38700.00000 0 -16008168.824 -12178713.257 -15723332.505 10 0 60388 39600.00000 0 -17013939.984 -13658041.883 -13269005.650 10 0 60388 40500.00000 0 -17935650.162 -14804668.686 -10557763.913 10 0 60388 41400.00000 0 -18715692.403 -15616281.704 -7642208.406 10 0 60388 42300.00000 0 -19299102.665 -16103017.397 -4578827.602 10 0 60388 43200.00000 0 -19635970.307 -16286788.101 -1426910.344 10 0 60388 44100.00000 0 -19683652.553 -16200131.258 1752590.625 10 0 60388 45000.00000 0 -19408701.207 -15884630.062 4898223.519 10 0 60388 45900.00000 0 -18788421.906 -15388972.434 7949209.353 10 0 60388 46800.00000 0 -17812001.264 -14766729.810 10846599.468 10 0 60388 47700.00000 0 -16481154.998 -14073948.400 13534397.725 10 0 60388 48600.00000 0 -14810269.540 -13366653.085 15960627.196 10 0 60388 49500.00000 0 -12826030.244 -12698367.480 18078322.158 10 0 60388 50400.00000 0 -10566550.037 -12117753.046 19846427.454 10 0 60388 51300.00000 0 -8080032.646 -11666465.257 21230588.904 10 0 60388 52200.00000 0 -5423023.366 -11377316.144 22203820.137 10 0 60388 53100.00000 0 -2658317.246 -11272820.189 22747033.177 10 0 60388 54000.00000 0 147391.299 -11364185.125 22849422.234 10 0 60388 54900.00000 0 2926022.569 -11650791.144 22508692.471 10 0 60388 55800.00000 0 5610687.196 -12120182.181 21731127.995 10 0 60388 56700.00000 0 8138218.018 -12748571.804 20531495.978 10 0 60388 57600.00000 0 10451553.974 -13501844.890 18932786.697 10 0 60388 58500.00000 0 12501877.045 -14337015.305 16965792.293 10 0 60388 59400.00000 0 14250412.806 -15204080.280 14668530.242 10 0 60388 60300.00000 0 15669818.491 -16048194.794 12085520.795 10 0 60388 61200.00000 0 16745099.267 -16812074.955 9266930.942 10 0 60388 62100.00000 0 17474013.003 -17438528.720 6267600.652 10 0 60388 63000.00000 0 17866945.457 -17873005.979 3145970.158 10 0 60388 63900.00000 0 17946260.453 -18066058.336 -37070.289 10 0 60388 64800.00000 0 17745152.379 -17975602.148 -3219384.541 10 0 60388 65700.00000 0 17306050.113 -17568886.372 -6338823.310 10 0 60388 66600.00000 0 16678641.158 -16824079.268 -9334459.307 10 0 60388 67500.00000 0 15917601.484 -15731404.421 -12147798.337 10 0 60388 68400.00000 0 15080129.446 -14293776.166 -14723940.466 10 0 60388 69300.00000 0 14223390.593 -12526906.331 -17012666.568 10 0 60388 70200.00000 0 13401983.777 -10458877.261 -18969427.575 10 0 60388 71100.00000 0 12665537.616 -8129199.181 -20556216.227 10 0 60388 72000.00000 0 12056540.175 -5587392.199 -21742304.040 10 0 60388 72900.00000 0 11608494.029 -2891153.367 -22504829.558 10 0 60388 73800.00000 0 11344474.290 -104186.587 -22829227.397 10 0 60388 74700.00000 0 11276149.346 2706212.981 -22709491.151 10 0 60388 75600.00000 0 11403303.955 5471718.697 -22148266.806 10 0 60388 76500.00000 0 11713882.668 8125569.703 -21156776.709 10 0 60388 77400.00000 0 12184549.536 10605098.116 -19754577.453 10 0 60388 78300.00000 0 12781738.327 12854082.284 -17969158.114 10 0 60388 79200.00000 0 13463147.128 14824830.124 -15835388.102 10 0 60388 80100.00000 0 14179612.959 16479908.236 -13394826.512 10 0 60388 81000.00000 0 14877286.572 17793447.627 -10694907.164 10 0 60388 81900.00000 0 15500015.571 18751974.603 -7788015.543 10 0 60388 82800.00000 0 15991835.781 19354735.075 -4730475.577 10 0 60388 83700.00000 0 16299466.740 19613501.453 -1581465.603 10 0 60388 84600.00000 0 16374707.329 19551872.398 1598116.175 10 0 60388 85500.00000 0 16176631.997 19204096.427 4746815.587 99